Location: Suburban Lights Observatory
(43.1572°N, 89.2764°W)
Time: 12:20:45
(UTC-06:00)

Daily predictions for brighter satellites

Satellite Brightness Start Highest point End
(mag) Time Altitude Azimuth Time Altitude Azimuth Time Altitude Azimuth
Cosmos 1844 Rocket 3.2 16:42:23 10° S 16:47:33 40° ESE 16:52:46 10° NE
PAYLOAD A 4.0 16:45:02 10° SSE 16:49:44 59° ENE 16:54:38 10° N
Cosmos 2341 Rocket 4.0 16:45:09 10° N 16:51:22 73° E 16:57:34 10° SSE
SPOT 3 Rocket 3.8 16:51:41 10° SE 16:56:40 49° ENE 17:01:40 10° N
MSX 4.4 16:51:45 10° SE 16:56:53 35° ENE 17:02:03 10° N
Meteor 1-27 Rocket 4.3 16:54:46 10° SSW 17:00:35 66° WNW 17:06:19 10° N
Cosmos 1844 4.3 16:55:58 10° S 17:01:03 38° ESE 17:06:09 10° NE
CZ-4 R/B 1.5 16:58:31 10° SSE 17:02:39 63° ENE 17:06:46 10° N
SJ-12 4.0 17:00:04 10° SSE 17:04:03 54° ENE 17:08:05 10° N
CORIOLIS 4.3 17:00:12 10° SE 17:05:25 51° ENE 17:10:39 10° N
USA 234 3.4 17:01:47 10° NE 17:08:21 83° NW 17:14:53 10° SW
Cosmos 372 Rocket 4.0 17:03:14 10° SSW 17:08:29 87° ESE 17:13:47 10° NNE
Okean 3 3.9 17:06:09 10° SSW 17:10:25 69° W 17:14:42 10° N
USA 32 4.2 17:06:00 10° SSE 17:11:01 51° E 17:16:04 10° NNE
Cosmos 1975 4.0 17:09:51 10° NNE 17:13:08 23° ENE 17:16:24 10° SE
Okean 1 Rocket 4.4 17:09:41 10° NNW 17:13:47 42° W 17:17:53 10° SSW
IDEFIX/ARIANE 42P 2.5 17:09:53 10° SSE 17:15:02 68° ENE 17:20:12 10° N
Cosmos 2278 Rocket 3.0 17:13:17 10° SSE 17:18:14 32° ESE 17:23:00 11° NE
Cosmos 1544 Rocket 3.7 17:14:58 10° N 17:19:23 55° E 17:23:45 10° SSE
MOS 1 4.3 17:13:43 10° SSE 17:19:23 82° ENE 17:25:03 10° NNW
COSMO-SKYMED 1 3.7 17:16:12 10° NE 17:19:47 24° E 17:23:20 10° SSE
COSMOS 2406 3.6 17:16:13 10° NNW 17:21:54 69° WSW 17:27:36 10° SSE
Cosmos 1975 Rocket 3.3 17:19:26 10° SSW 17:23:43 72° W 17:28:04 10° N
Cosmos 494 Rocket 4.1 17:20:56 10° NNW 17:26:04 53° ENE 17:31:12 10° SE
ATLAS 2AS CENTAUR R/B 3.0 17:21:22 10° NW 17:29:31 77° NE 17:37:08 10° SE
ISS -3.2 17:26:36 10° WSW 17:29:53 70° NNW 17:32:01 20° NE
Meteor 1-5 Rocket 4.5 17:26:48 10° NNW 17:32:11 72° W 17:37:43 10° S
Thor Agena Rocket 3.6 17:28:03 10° NNE 17:33:17 89° WNW 17:38:32 10° SSW
Genesis I 4.2 17:32:17 10° NNW 17:35:39 26° NE 17:36:53 22° ENE
Cosmos 1484 Rocket 2.9 17:35:01 10° SE 17:38:36 44° ENE 17:42:11 10° N
Cosmos 1536 Rocket 3.7 17:35:57 10° S 17:40:16 53° E 17:44:39 10° NNE
Cosmos 2082 Rocket 3.0 17:37:16 10° N 17:42:07 28° NE 17:45:09 18° E
Cosmos 1833 Rocket 3.6 17:41:12 10° N 17:45:54 26° NE 17:47:38 22° E
Cosmos 2251 Rocket 3.5 17:40:51 10° NNW 17:46:15 90° E 17:51:34 10° SSE
YAOGAN 1 3.2 17:43:29 10° S 17:47:45 59° W 17:52:03 10° NNW
SL-27 R/B 3.5 17:50:27 10° NNW 17:54:01 49° WSW 17:57:32 10° S
Cosmos 1500 3.2 17:52:13 10° N 17:55:58 53° E 17:59:44 10° SSE
CZ-2C R/B 3.6 17:54:02 10° S 17:58:47 46° W 18:03:42 10° NNW
MONITOR-E 4.5 17:56:04 10° S 17:59:15 70° W 18:02:27 10° NNW
Cosmos 1238 Rocket 2.8 17:56:36 10° SSW 17:59:29 53° W 18:02:03 13° N
Meteor 1-28 Rocket 3.8 18:00:17 36° ESE 18:00:17 36° ESE 18:03:40 10° SSE
EP 2 4.1 17:59:35 10° SSW 18:02:09 82° SE 18:02:09 82° SE
Cosmos 921 Rocket 4.3 17:59:18 10° SSE 18:01:34 22° SE 18:01:34 22° SE
BREEZE M DEB (TANK) 3.2 17:54:33 10° SW 18:02:54 45° SSE 18:04:05 34° ESE
SL-24 DEB 4.2 18:00:00 10° N 18:04:46 87° W 18:09:28 10° S
OPS 8737 4.5 18:03:57 10° SW 18:07:13 66° NW 18:07:58 46° N
Okean 1 3.3 18:03:36 10° S 18:07:38 85° W 18:11:02 15° N
BREEZE-M R/B 4.1 17:57:06 10° SW 18:07:44 77° SSE 18:10:11 34° ENE
SKYMED 2 3.4 18:04:28 15° NNE 18:08:03 81° ESE 18:12:24 10° S
Cosmos 1455 Rocket 3.8 18:04:38 10° NNW 18:08:56 54° W 18:13:14 10° S
Okean 1-7 Rocket 4.0 18:05:22 10° SSE 18:09:30 40° E 18:09:30 40° E
Cosmos 375 4.2 18:05:13 10° NW 18:09:46 78° NE 18:11:35 31° SE
Cosmos 2366 rocket 4.5 18:03:36 10° NNW 18:09:54 64° W 18:16:06 10° S
Abrixas 3.8 18:07:33 10° NW 18:09:39 29° NNW 18:09:39 29° NNW
OTV 4 3.6 18:13:53 10° SSW 18:14:13 10° SSW 18:14:33 10° SSW
Cosmos 1812 4.0 18:16:10 10° SSW 18:19:49 40° WNW 18:23:30 10° N
Cosmos 1934 Rocket 4.3 18:15:48 10° N 18:21:37 41° ENE 18:27:29 10° SE
GEOS 3 Rocket 3.6 18:17:26 10° SE 18:22:34 82° SW 18:27:42 10° NW
Timation 2 Rocket 4.1 18:18:41 10° NNW 18:25:30 69° ENE 18:32:22 10° SE
Cosmos 1346 Rocket 2.7 18:22:09 10° SSW 18:26:04 81° W 18:26:52 54° N
Cosmos 1809 Rocket 4.5 18:21:57 10° N 18:28:09 81° W 18:34:15 10° S
Cosmos 1844 Rocket 4.2 18:26:32 10° WSW 18:31:30 32° NW 18:36:25 11° N
ATLAS 3B CENTAUR R/B 4.4 18:17:52 10° WSW 18:33:15 34° S 18:38:07 19° SE
Cosmos 2239 Rocket 4.3 18:29:56 10° N 18:36:09 69° E 18:42:17 10° SSE
SL-8 R/B 3.5 18:33:57 10° WSW 18:38:44 89° NNW 18:38:57 82° NE
CZ-3B DEB 3.0 18:34:48 10° WSW 18:39:16 61° NNW 18:43:53 31° NE
COSMOS 2487 4.0 18:37:55 10° NNW 18:39:54 29° NW 18:39:54 29° NW
Cosmos 1821 Rocket 3.8 18:39:01 10° N 18:45:09 77° E 18:51:14 10° SSE
Cosmos 2297 3.5 18:40:55 10° SSW 18:46:34 82° ESE 18:47:19 67° NE
USA 234 4.3 18:48:21 27° NNE 18:50:51 36° NNW 18:56:39 10° W
COSMO-SKYMED 1 4.3 18:53:03 15° NNW 18:55:57 31° WNW 18:59:47 10° SW
Cosmos 2278 Rocket 3.4 18:56:55 10° SW 19:02:11 39° WNW 19:04:53 25° N
Meteor 1-19 Rocket 4.4 18:58:47 10° SSW 19:04:32 71° WNW 19:06:35 41° N
NOSS 3-4 (A) 3.9 18:58:15 10° NNW 19:04:34 57° NNE 19:04:34 57° NNE
NOSS 3-4 (C) 3.9 18:58:21 10° NNW 19:04:38 57° NNE 19:04:38 57° NNE
BREEZE M DEB (TANK) 3.6 19:01:11 10° WNW 19:05:21 76° NNE 19:06:13 67° E
ISS -0.1 19:04:11 10° WNW 19:04:42 13° WNW 19:04:42 13° WNW
Cosmos 2082 Rocket 3.0 19:21:00 10° NW 19:26:25 48° WSW 19:27:09 45° SW
Cosmos 1833 Rocket 3.4 19:24:39 10° NW 19:29:26 49° W 19:29:26 49° W
FALCON 9 R/B 3.7 19:38:34 10° W 19:51:04 42° SSW 19:51:04 42° SSW
